This is the latest recevied weather packets stored in our database for station/object DG1ROH. If no packets are shown the sender has not sent any weather packets the latest 10 day(s).
| Time | Temp. | Humidity | Pressure | Rain* | Wind** | Luminosity | Snow |
|---|---|---|---|---|---|---|---|
| 1778245229 | 13.33° C | 64% | 1019.7 hPa | 0 mm | - | 202 W/m² | - |
| 1778245109 | 13.33° C | 64% | 1019.7 hPa | 0 mm | - | 197 W/m² | - |
| 1778244989 | 13.33° C | 64% | 1019.8 hPa | 0 mm | - | 193 W/m² | - |
| 1778244869 | 13.33° C | 65% | 1019.7 hPa | 0 mm | - | 192 W/m² | - |
| 1778244749 | 13.33° C | 65% | 1019.9 hPa | 0 mm | - | 179 W/m² | - |
| 1778244629 | 13.33° C | 65% | 1019.8 hPa | 0 mm | - | 169 W/m² | - |
| 1778244509 | 13.33° C | 66% | 1019.9 hPa | 0 mm | - | 163 W/m² | - |
| 1778244389 | 13.33° C | 68% | 1019.9 hPa | 0 mm | - | 160 W/m² | - |
| 1778244269 | 13.33° C | 65% | 1019.9 hPa | 0 mm | - | 153 W/m² | - |
| 1778244149 | 13.33° C | 66% | 1019.9 hPa | 0 mm | - | 144 W/m² | - |
| 1778244029 | 13.33° C | 66% | 1019.9 hPa | 0 mm | - | 139 W/m² | - |
| 1778243908 | 13.33° C | 66% | 1019.9 hPa | 0 mm | - | 135 W/m² | - |
| 1778243785 | 13.33° C | 66% | 1020 hPa | 0 mm | - | 135 W/m² | - |
| 1778243665 | 13.33° C | 64% | 1019.9 hPa | 0 mm | - | 137 W/m² | - |
| 1778243545 | 13.33° C | 65% | 1019.8 hPa | 0 mm | - | 137 W/m² | - |
| 1778243425 | 13.33° C | 65% | 1019.9 hPa | 0 mm | - | 141 W/m² | - |
| 1778243305 | 13.33° C | 65% | 1019.8 hPa | 0 mm | - | 148 W/m² | - |
| 1778243184 | 13.33° C | 64% | 1019.8 hPa | 0 mm | - | 158 W/m² | - |
| 1778243065 | 13.33° C | 65% | 1019.8 hPa | 0 mm | - | 165 W/m² | - |
| 1778242944 | 13.33° C | 66% | 1019.7 hPa | 0 mm | - | 176 W/m² | - |
| 1778242824 | 13.33° C | 63% | 1019.7 hPa | 0 mm | - | 186 W/m² | - |
| 1778242703 | 13.33° C | 63% | 1019.8 hPa | 0 mm | - | 199 W/m² | - |
| 1778242586 | 13.33° C | 63% | 1019.7 hPa | 0 mm | - | 204 W/m² | - |
| 1778242465 | 13.89° C | 62% | 1019.8 hPa | 0 mm | - | 209 W/m² | - |
| 1778242343 | 13.89° C | 64% | 1019.8 hPa | 0 mm | - | 225 W/m² | - |
* Rain latest hour (hover to see other rain measurements)
** Current wind speed in m/s (hover to see current wind gust speed)